Location: C�an Torras
(41.5052°N, 1.9280°E)
Time: 19:10:48
(UTC+00:00)

USA 267 - Pass Details

Date: 20 January 2021
Orbit: 1099 x 1108 km, 123.0° (Epoch: 03 March)

Event Time Altitude Azimuth Distance (km) Brightness Sun altitude
Exits shadow 19:51:39 78° 295° (WNW) 1,128 3.2 -33.1°
Drops below altitude 10° 19:57:57 10° 236° (SW) 2,954 6.1 -34.3°
Sets 20:00:25 0° 235° (SW) 3,911 6.8 -34.7°
